Temperature
13 13 13 13 13 12 11 10 10 11 11 11 11 12 13 13 13 13 13 13 13 12 12 12 12 11 11 11 11 11 12 12 12 12 12 12 12 12 13 13 13 13 13 13
14 14 14 13 13 13 12 11 11 11 11 12 13 13 13 13 13 13 13 13 13 13 12 12 12 11 11 11 11 11 11 11 11 11 12 12 12 12 12 12 12 12 13 13
12 13 13 13 13 12 12 12 12 11 12 13 13 13 14 14 14 13 13 13 13 13 13 12 12 11 11 11 11 11 11 11 11 11 11 11 11 11 11 11 12 12 12 12
11 13 14 14 14 13 13 13 12 12 12 13 14 14 14 14 14 14 14 13 13 13 13 12 12 12 11 11 11 11 11 11 11 11 11 11 11 11 11 11 11 11 11 11
10 12 13 14 13 13 13 13 13 12 13 14 14 14 14 14 14 14 14 14 14 13 13 13 12 12 12 11 11 11 11 11 11 10 10 10 10 10 10 10 11 11 11 11
11 14 15 15 14 15 14 13 14 14 14 14 13 11 12 14 14 14 14 14 14 14 13 13 13 12 12 12 11 11 11 11 10 10 10 10 10 10 10 10 10 10 10 10
11 13 13 14 14 15 13 13 15 15 15 14 14 13 15 14 14 14 14 14 14 14 14 13 13 13 12 12 12 11 11 11 11 10 10 10 10 10 10 10 10 10 10 10
10 12 13 14 13 13 13 16 16 16 16 15 15 15 15 15 14 14 14 14 14 14 14 14 13 13 12 12 12 11 11 11 11 10 10 10 10 10 10 10 10 10 9 9
11 13 15 15 16 17 17 17 16 16 16 15 15 15 15 15 15 15 15 15 15 14 14 14 13 13 13 12 12 11 11 11 11 10 10 10 10 10 10 10 9 9 9 9
10 11 14 15 16 17 17 17 17 17 16 16 15 15 15 15 15 15 15 15 15 15 14 14 14 13 13 12 12 12 11 11 11 10 10 10 10 10 10 10 9 9 9 9
12 12 14 15 16 17 17 17 17 16 16 16 16 15 15 15 15 15 15 15 15 15 15 14 14 13 13 13 12 12 11 11 11 10 10 10 10 10 9 9 9 9 9 9
13 16 15 18 18 17 17 17 17 16 16 16 16 16 15 15 15 15 15 15 15 15 15 14 14 14 13 13 12 12 11 11 11 10 10 10 10 10 9 9 9 9 8 8
20 20 19 19 18 17 17 17 17 17 16 16 16 16 15 15 15 15 15 15 15 15 15 14 14 14 13 13 13 12 12 11 11 11 10 10 10 10 10 9 9 9 8 8
19 19 19 18 18 18 17 17 17 17 16 16 16 16 15 15 15 15 15 15 15 15 15 14 14 14 14 13 13 12 12 11 11 11 11 10 10 10 10 10 9 9 9 9
20 19 19 19 18 18 17 17 16 16 16 16 16 15 15 15 15 15 15 15 15 15 15 14 14 14 14 13 13 13 12 12 11 11 11 11 11 10 10 10 9 9 9 9
20 19 19 18 18 18 17 16 16 16 16 16 16 16 15 15 15 15 15 15 15 15 15 14 14 14 14 14 13 13 13 12 12 12 11 11 11 10 10 10 10 9 9 9
20 19 18 18 18 18 17 17 16 16 16 16 16 16 15 15 15 15 15 15 15 15 15 14 14 14 14 14 13 13 13 13 12 12 12 11 11 11 11 10 10 10 9 9
21 21 20 19 19 18 18 17 16 16 16 16 16 15 15 15 15 15 15 15 15 15 15 14 14 14 14 14 13 13 13 13 13 12 12 12 11 11 11 11 10 10 10 10
20 20 19 19 18 18 18 17 17 16 16 16 15 15 15 15 15 15 15 15 15 15 14 14 14 14 13 13 13 13 13 13 13 13 12 12 12 12 11 11 11 10 10 10
20 19 19 18 18 18 17 17 17 16 16 15 15 15 15 15 15 15 14 14 15 14 14 14 13 13 13 13 13 13 13 13 13 13 13 13 12 12 12 12 11 11 11 11
19 19 19 18 18 18 17 17 16 16 16 15 15 15 15 15 15 15 14 14 15 14 14 13 13 13 13 13 13 13 13 13 13 13 13 13 13 12 12 12 12 11 11 11
19 19 18 18 18 17 17 17 16 16 16 15 15 15 15 15 15 15 14 14 14 14 13 13 13 13 13 13 13 13 13 13 13 13 13 13 13 13 13 12 12 12 12 11
17 18 18 17 17 17 17 17 16 16 16 16 15 15 15 15 15 15 14 14 14 14 13 13 13 13 13 13 13 13 13 13 13 13 13 13 13 13 13 13 12 12 12 12
16 16 16 17 17 16 16 16 16 16 16 16 16 15 15 15 15 15 14 14 14 13 13 13 13 13 13 13 13 13 13 13 13 13 13 13 13 13 13 13 13 13 12 12
14 14 15 15 15 16 16 16 16 16 16 16 15 15 15 15 15 15 14 14 14 13 13 13 13 13 13 13 13 13 13 13 13 13 13 13 13 13 13 13 13 13 13 12
12 12 12 13 13 14 14 15 15 15 15 15 15 15 15 15 15 14 14 14 14 13 13 13 13 13 13 13 13 13 13 13 13 13 13 13 13 13 13 13 13 13 13 12
10 10 11 11 11 12 12 13 13 14 14 14 14 15 15 14 14 14 14 14 14 13 13 13 13 13 13 13 12 12 12 12 12 12 12 12 12 12 13 13 13 12 12 12
Wind_Speed
3 3 2 1 1 2 3 5 5 5 4 7 7 6 7 7 8 8 8 8 8 8 8 8 8 9 8 9 9 9 9 10 9 9 9 9 10 10 10 10 10 8 8 8
2 1 2 1 2 2 3 4 4 2 5 7 5 4 5 7 7 7 8 8 8 7 7 7 7 7 7 8 8 8 9 9 9 9 9 10 9 9 10 10 9 10 10 9
0 2 4 5 7 7 5 5 6 6 6 4 3 4 5 6 6 6 7 7 7 6 5 5 5 5 6 6 6 7 8 8 8 8 8 8 9 9 10 9 9 10 10 10
3 2 4 7 4 7 6 6 8 6 5 5 5 4 5 5 4 6 6 6 6 5 5 4 4 4 5 6 6 7 7 8 8 8 7 7 8 9 8 7 8 8 9 10
4 2 7 6 4 7 6 6 8 8 6 4 2 3 5 4 3 4 4 4 4 4 3 3 3 3 4 6 6 7 7 7 7 7 7 8 8 8 7 7 8 8 8 9
4 2 5 6 5 6 5 5 7 10 9 6 5 1 4 5 4 5 5 3 4 4 2 2 3 3 4 5 5 6 5 5 6 6 7 7 7 6 6 6 7 7 8 8
4 5 8 6 6 9 5 7 6 10 9 9 8 6 5 5 4 4 4 4 4 4 3 3 2 2 3 3 4 3 4 5 6 6 6 6 6 6 6 6 7 7 8 7
5 4 8 6 10 9 10 3 8 9 9 9 8 5 4 3 2 4 4 4 4 4 4 3 2 2 2 2 1 3 5 6 7 7 6 6 6 7 7 7 7 8 8 8
9 8 5 9 8 7 7 7 8 9 8 8 7 5 3 1 1 3 4 4 3 3 3 4 3 1 1 0 2 4 5 6 6 6 6 6 6 6 6 7 6 7 7 7
5 8 6 9 6 5 7 8 8 9 8 9 7 6 5 2 1 2 3 3 3 3 3 4 3 2 0 2 4 5 5 4 4 5 5 5 5 5 5 6 6 6 6 6
6 7 4 7 10 9 8 7 8 7 8 9 8 7 5 3 2 2 2 3 2 2 2 3 3 3 2 3 5 5 4 3 3 3 3 3 4 4 4 4 3 3 3 4
9 8 8 8 10 11 10 10 10 10 8 7 8 7 6 4 3 2 2 2 2 2 1 2 2 3 2 2 5 5 4 3 2 1 1 1 2 2 3 3 6 7 6 5
6 6 7 3 8 12 12 12 11 11 10 8 6 6 6 4 3 2 1 1 2 2 1 1 1 2 2 1 4 5 4 3 3 2 2 1 0 1 3 4 5 7 9 9
5 6 5 6 8 11 11 11 10 9 8 8 7 6 5 4 3 3 2 2 2 2 1 0 1 2 2 0 3 4 4 4 4 3 3 2 2 2 1 1 2 3 5 7
10 9 7 6 8 10 9 9 9 9 8 7 6 6 6 6 5 4 3 2 1 1 1 0 1 3 3 0 3 4 4 3 3 3 2 2 2 2 1 1 0 1 2 3
9 7 6 7 10 11 10 11 11 11 10 9 8 8 8 7 5 4 3 3 2 2 3 2 2 3 3 1 2 3 3 5 4 3 2 2 2 2 2 2 1 1 1 1
11 10 9 8 10 12 13 13 13 12 10 10 10 9 7 6 4 5 5 4 4 5 4 4 3 3 3 2 2 3 3 3 4 3 3 3 3 3 3 3 3 3 2 2
12 13 11 10 11 13 13 12 12 12 11 11 10 8 8 8 8 8 6 4 3 3 4 5 4 3 3 2 2 2 3 3 3 4 4 4 4 4 4 4 4 4 3 2
11 10 11 10 11 13 13 12 12 11 11 10 10 10 10 10 9 7 5 5 5 6 6 6 5 3 3 3 2 2 2 3 3 4 4 5 4 4 4 5 5 5 4 4
10 9 10 10 9 9 11 11 11 10 10 10 10 9 9 9 8 7 7 7 7 7 5 4 4 4 4 3 2 2 3 3 4 4 4 4 5 5 5 5 6 5 5 5
10 10 10 10 10 9 10 11 11 11 10 10 10 10 11 10 8 7 6 7 8 7 7 7 5 5 4 4 3 2 3 4 4 4 5 5 5 5 6 6 6 6 6 6
6 8 9 9 9 8 8 9 9 10 10 10 10 10 9 8 8 7 7 8 7 7 6 5 5 7 7 5 3 3 4 4 4 4 5 5 5 6 6 6 6 6 6 6
2 4 5 7 8 7 6 7 9 9 10 11 11 11 10 10 8 7 8 8 7 8 7 6 9 11 10 6 4 4 5 5 5 5 5 5 6 6 6 7 6 6 6 6
5 4 2 3 4 5 5 6 7 7 8 9 9 10 9 7 6 8 8 6 8 10 7 9 13 13 10 5 5 5 5 5 5 5 5 5 5 6 6 6 6 6 6 7
7 8 8 7 5 2 1 1 3 4 5 5 6 7 7 7 8 7 6 8 10 9 7 9 13 13 8 6 6 6 6 6 6 6 5 5 6 6 6 6 6 6 6 7
7 6 6 5 4 3 2 2 2 1 2 3 3 4 4 5 6 5 5 7 9 9 8 7 7 8 6 7 7 7 7 7 7 7 6 6 6 6 6 6 8 7 7 7
5 5 5 5 5 5 4 4 3 2 1 1 3 2 2 3 4 5 6 6 6 7 7 6 6 6 7 7 7 7 7 7 7 7 6 6 6 6 6 7 6 6 6 6
Wind_Direction
83 93 104 99 115 135 132 162 168 218 244 270 284 293 304 315 328 339 346 349 351 350 350 357 4 6 9 12 12 17 24 28 25 23 28 32 35 36 37 38 40 37 39 34
47 41 55 306 221 169 158 170 192 230 263 255 270 292 311 324 334 339 340 343 347 351 353 356 360 1 7 9 7 17 26 24 20 26 31 31 31 34 38 37 37 39 37 32
233 340 6 284 223 195 200 197 181 207 237 246 266 292 302 312 324 325 329 333 341 344 345 343 351 359 4 1 9 23 26 23 21 26 32 27 32 36 35 33 36 39 34 30
114 70 274 249 216 176 185 216 203 215 231 222 231 267 287 286 301 315 324 332 335 335 338 341 353 4 7 15 21 26 26 23 19 25 31 30 35 34 28 28 33 34 31 27
124 211 281 280 190 169 176 244 208 202 217 217 206 2 321 296 302 293 303 308 308 312 312 332 357 6 22 24 23 27 24 22 19 25 33 34 34 28 22 30 34 32 29 27
132 200 254 253 190 152 114 269 216 185 194 183 128 88 275 294 316 319 329 327 328 334 344 356 358 29 37 25 28 23 19 22 26 34 41 39 34 29 25 31 31 29 30 25
165 229 262 239 148 122 147 244 196 175 179 170 179 204 237 296 318 335 340 343 353 3 358 333 349 51 42 26 25 21 39 41 37 38 46 42 39 33 29 31 31 28 25 20
163 205 259 184 147 178 210 191 162 169 173 178 201 222 242 267 325 351 354 354 1 3 348 342 9 60 43 18 39 75 68 58 47 39 42 42 44 38 32 33 34 27 21 17
190 212 235 184 193 200 168 164 173 172 179 176 182 199 200 198 338 341 349 351 351 353 351 357 9 57 50 310 128 106 84 69 59 53 45 40 45 41 36 33 35 28 25 18
240 257 233 215 224 193 180 177 174 170 168 168 175 185 184 189 277 327 337 343 345 4 13 358 354 18 18 156 140 122 105 88 72 64 52 41 41 40 42 35 32 29 23 13
247 265 255 224 206 194 182 164 154 158 169 174 172 180 184 194 230 280 313 325 340 353 345 335 345 6 29 133 141 130 123 116 97 80 71 51 44 37 37 30 29 29 11 2
218 214 191 219 198 176 166 172 170 164 169 177 176 181 180 193 216 235 284 315 339 348 345 339 354 3 16 137 150 148 149 156 156 147 121 68 31 11 9 20 32 41 37 32
201 191 183 222 176 173 176 177 173 173 172 175 181 180 175 189 205 215 252 301 316 313 307 329 356 356 353 165 162 166 177 184 186 192 200 215 266 352 348 350 15 32 28 34
178 138 163 185 182 182 180 175 170 173 176 173 171 171 171 180 192 209 242 270 285 289 284 354 351 331 331 208 167 174 181 193 192 205 213 223 232 241 256 332 346 344 3 27
195 189 192 184 167 169 167 157 161 175 178 178 174 173 178 186 204 221 237 253 264 288 279 313 316 310 323 290 183 185 186 195 198 205 214 224 226 220 219 222 277 326 344 4
182 180 165 164 172 172 165 171 178 187 186 185 185 192 194 196 206 222 229 203 195 244 257 255 274 291 302 272 203 198 211 220 201 197 210 216 212 205 206 202 212 261 290 300
154 180 188 190 189 186 186 185 187 188 186 189 196 194 187 187 206 230 234 221 221 239 239 227 249 286 294 258 215 215 219 234 218 198 209 214 212 212 210 206 215 233 248 244
192 190 183 183 185 190 193 189 186 184 188 197 190 179 182 191 209 224 226 218 226 250 242 228 235 266 280 278 233 215 212 219 213 215 220 219 220 215 209 213 222 228 235 247
199 193 191 192 186 185 188 189 190 191 190 183 180 190 199 205 212 216 202 196 213 239 250 233 230 235 251 267 250 225 228 232 232 231 227 229 224 216 214 217 225 226 221 216
196 194 191 193 185 181 188 188 184 187 189 182 185 193 205 215 210 202 193 212 222 221 227 221 221 232 241 254 246 233 246 248 246 245 235 227 226 226 222 222 225 227 223 218
189 188 187 187 189 191 190 184 181 189 189 181 185 198 209 216 202 187 190 230 246 224 221 225 217 224 228 230 232 232 247 252 252 248 242 237 234 232 229 227 227 227 225 221
180 185 190 188 186 195 195 184 185 189 185 187 196 201 205 210 201 198 212 222 236 208 200 213 216 223 221 218 213 232 247 252 252 249 246 240 235 235 234 231 230 230 227 222
135 171 180 185 190 195 185 185 191 189 190 194 197 198 203 207 194 191 229 232 219 216 206 216 223 228 230 217 211 227 244 252 253 250 248 245 239 236 236 236 232 230 227 224
61 68 95 140 142 149 179 203 201 200 202 205 206 204 199 203 213 219 222 229 203 208 212 224 228 230 227 207 212 225 237 246 250 251 251 250 246 242 239 237 237 233 228 225
55 57 60 71 80 85 241 220 179 195 202 214 224 217 207 199 209 221 211 217 220 218 221 232 233 230 217 205 211 221 230 238 243 243 244 248 249 246 243 239 236 235 230 225
48 53 55 60 60 44 40 70 98 146 185 225 249 236 222 219 222 224 215 218 221 218 218 224 225 224 211 211 217 222 228 241 251 247 242 245 249 249 247 244 241 236 233 230
42 44 46 44 34 31 40 52 53 32 7 245 269 281 247 228 223 226 227 227 224 223 224 224 218 214 214 216 221 224 227 230 233 236 238 240 243 244 246 247 243 238 231 226
Height
1578 1577 1577 1579 1580 1581 1584 1588 1592 1588 1586 1581 1577 1575 1572 1570 1568 1565 1562 1559 1555 1552 1549 1546 1543 1539 1536 1533 1530 1528 1525 1522 1520 1518 1517 1515 1513 1511 1510 1509 1508 1508 1507 1506
1579 1577 1577 1578 1578 1579 1580 1583 1584 1583 1582 1575 1575 1574 1572 1571 1568 1566 1563 1561 1558 1555 1552 1549 1546 1543 1540 1538 1535 1533 1530 1527 1525 1523 1520 1518 1517 1515 1513 1512 1510 1509 1509 1508
1586 1580 1581 1582 1575 1576 1577 1577 1579 1582 1579 1574 1574 1573 1572 1571 1569 1567 1565 1562 1560 1557 1555 1552 1550 1547 1544 1542 1539 1536 1534 1531 1529 1527 1524 1522 1521 1519 1517 1515 1513 1512 1511 1510
1588 1585 1585 1576 1566 1568 1572 1572 1573 1573 1572 1572 1572 1572 1572 1571 1569 1568 1566 1564 1561 1559 1557 1554 1552 1550 1547 1545 1542 1540 1537 1534 1532 1530 1528 1526 1524 1522 1520 1518 1516 1515 1513 1512
1590 1588 1582 1570 1565 1566 1570 1570 1567 1569 1569 1570 1571 1572 1571 1570 1569 1568 1566 1564 1562 1560 1558 1556 1554 1552 1550 1548 1545 1542 1540 1537 1535 1533 1532 1530 1527 1525 1523 1522 1520 1518 1516 1514
1587 1582 1579 1566 1559 1561 1567 1570 1561 1564 1566 1569 1570 1574 1572 1570 1569 1568 1566 1565 1563 1561 1559 1558 1556 1554 1552 1550 1548 1545 1543 1540 1539 1537 1535 1533 1531 1529 1527 1525 1523 1521 1519 1517
1584 1582 1572 1558 1558 1562 1575 1567 1557 1560 1563 1566 1568 1570 1570 1569 1568 1568 1566 1565 1563 1562 1560 1559 1557 1556 1554 1552 1550 1548 1546 1543 1541 1540 1538 1536 1534 1532 1530 1528 1525 1523 1521 1519
1582 1581 1572 1554 1556 1560 1557 1553 1555 1558 1561 1564 1566 1567 1568 1568 1568 1567 1566 1565 1564 1562 1561 1560 1558 1557 1555 1554 1552 1550 1548 1546 1544 1543 1541 1539 1537 1535 1533 1531 1528 1526 1524 1522
1564 1559 1548 1547 1547 1549 1550 1551 1554 1557 1560 1563 1565 1566 1567 1568 1568 1567 1566 1565 1564 1563 1562 1560 1559 1558 1556 1555 1553 1552 1551 1549 1547 1546 1544 1542 1541 1539 1536 1534 1531 1529 1527 1525
1553 1545 1543 1543 1544 1546 1548 1550 1553 1556 1559 1561 1563 1565 1566 1567 1567 1567 1566 1565 1565 1563 1562 1561 1560 1559 1557 1556 1555 1554 1553 1551 1550 1548 1547 1546 1544 1542 1539 1536 1534 1532 1530 1528
1547 1540 1538 1538 1540 1543 1546 1549 1552 1555 1558 1560 1562 1564 1565 1566 1566 1566 1566 1565 1565 1564 1563 1562 1560 1559 1558 1557 1556 1555 1554 1553 1552 1551 1550 1548 1546 1544 1542 1540 1537 1535 1533 1531
1538 1530 1531 1531 1534 1539 1543 1546 1550 1553 1556 1559 1561 1562 1564 1565 1565 1565 1565 1565 1564 1564 1563 1562 1561 1560 1559 1558 1557 1556 1555 1554 1553 1553 1551 1550 1549 1547 1545 1543 1540 1538 1536 1534
1525 1526 1528 1529 1531 1536 1540 1544 1548 1551 1554 1556 1559 1561 1562 1563 1564 1564 1564 1564 1564 1564 1563 1562 1561 1560 1559 1558 1558 1557 1556 1555 1554 1554 1553 1552 1550 1549 1547 1545 1543 1541 1538 1536
1523 1524 1526 1527 1529 1533 1537 1542 1546 1549 1552 1555 1557 1559 1561 1562 1563 1563 1563 1563 1563 1563 1562 1562 1561 1560 1559 1559 1558 1557 1556 1555 1555 1554 1554 1553 1552 1550 1549 1547 1545 1543 1541 1538
1518 1521 1523 1525 1527 1530 1534 1539 1542 1546 1549 1552 1554 1557 1558 1560 1561 1561 1562 1562 1562 1562 1561 1561 1560 1560 1559 1558 1558 1557 1556 1555 1555 1554 1554 1553 1552 1551 1550 1548 1546 1544 1542 1540
1515 1518 1520 1521 1523 1526 1530 1533 1537 1541 1545 1548 1551 1553 1556 1557 1559 1559 1560 1560 1560 1560 1560 1559 1559 1558 1558 1557 1557 1556 1556 1555 1554 1554 1553 1553 1552 1551 1550 1549 1547 1546 1544 1542
1511 1512 1515 1517 1519 1521 1524 1528 1532 1536 1541 1544 1547 1550 1553 1554 1555 1556 1557 1558 1558 1558 1558 1557 1557 1557 1556 1556 1555 1555 1555 1554 1554 1553 1553 1552 1552 1551 1550 1549 1548 1546 1545 1543
1506 1509 1510 1512 1514 1517 1520 1524 1528 1532 1536 1540 1544 1546 1548 1550 1552 1553 1554 1555 1555 1555 1555 1555 1554 1554 1554 1553 1553 1553 1553 1553 1552 1552 1552 1551 1551 1550 1549 1549 1548 1547 1545 1544
1501 1504 1507 1509 1511 1513 1516 1519 1523 1528 1532 1536 1539 1541 1544 1546 1548 1550 1551 1551 1551 1552 1552 1552 1551 1551 1551 1550 1550 1550 1550 1550 1550 1550 1550 1550 1549 1549 1548 1547 1547 1546 1545 1544
1496 1499 1502 1505 1507 1509 1512 1515 1519 1523 1527 1531 1534 1537 1539 1541 1544 1545 1546 1546 1547 1548 1548 1548 1547 1547 1547 1547 1547 1547 1547 1547 1547 1547 1547 1547 1547 1546 1546 1545 1545 1544 1544 1543
1491 1494 1497 1500 1503 1505 1508 1511 1515 1518 1522 1526 1528 1531 1534 1537 1539 1540 1541 1542 1543 1543 1543 1543 1543 1543 1543 1543 1543 1543 1543 1543 1543 1543 1543 1543 1544 1543 1543 1543 1542 1542 1541 1541
1488 1490 1493 1496 1499 1501 1505 1508 1511 1514 1517 1520 1523 1526 1529 1531 1533 1534 1535 1537 1538 1538 1538 1539 1539 1539 1539 1539 1539 1539 1539 1539 1538 1539 1539 1539 1539 1540 1540 1540 1539 1539 1539 1538
1484 1487 1489 1492 1495 1498 1501 1504 1506 1509 1512 1515 1518 1520 1523 1525 1527 1529 1530 1532 1532 1533 1533 1533 1534 1535 1535 1535 1535 1535 1534 1534 1534 1534 1534 1534 1535 1535 1535 1535 1535 1535 1535 1535
1482 1484 1486 1489 1491 1494 1496 1499 1502 1505 1507 1510 1513 1515 1517 1519 1521 1523 1524 1526 1526 1527 1527 1528 1529 1529 1530 1530 1530 1530 1530 1530 1530 1529 1529 1530 1530 1530 1530 1531 1531 1531 1531 1531
1481 1482 1484 1486 1488 1490 1492 1494 1497 1499 1502 1504 1507 1510 1512 1514 1515 1517 1519 1520 1520 1521 1521 1522 1523 1523 1524 1524 1525 1525 1525 1525 1525 1525 1525 1525 1525 1525 1525 1525 1526 1526 1526 1526
1482 1482 1483 1484 1485 1487 1488 1490 1492 1494 1496 1499 1501 1504 1506 1507 1509 1511 1512 1513 1514 1515 1516 1517 1517 1518 1518 1519 1519 1519 1519 1519 1519 1519 1519 1519 1519 1519 1519 1520 1520 1520 1521 1521
1482 1483 1483 1484 1485 1485 1486 1487 1489 1490 1492 1494 1496 1498 1499 1501 1502 1504 1505 1507 1508 1509 1510 1511 1511 1512 1512 1512 1513 1513 1513 1513 1513 1513 1513 1513 1513 1513 1513 1513 1514 1514 1514 1514